Chesterfield, MO

3:45 AM CST on February 27, 2017 (GMT -0600)
Spirit Of Saint Louis

Weather History for KSUS - November, 2013

Change the Weather History Date:

Monday, November 25, 2013

  Actual Average Record
Temperature  
Mean Temperature 32 °F -  
Max Temperature 36 °F 50 °F 72 °F (2006)
Min Temperature 27 °F 31 °F 17 °F (2005)
Degree Days  
Heating Degree Days 34    
Moisture  
Dew Point 15 °F    
Average Humidity 50    
Maximum Humidity 64    
Minimum Humidity 41    
Precipitation  
Precipitation 0.00 in - - ()
Sea Level Pressure  
Sea Level Pressure 30.30 in    
Wind  
Wind Speed 5 mph (SSW)    
Max Wind Speed 10 mph    
Max Gust Speed -    
Visibility 10 miles    
Events      
Averages and records for this station are not official NWS values.
T = Trace of Precipitation, MM = Missing Value Source: NWS Daily Summary

Daily Weather History Graph

Daily Weather History Graph

Search for Another Location

Airport or City:

Trip Planner

Search our weather history database for the weather conditions in past years. The results will help you decide how hot, cold, wet, or windy it might be!

Date:

Astronomy

Nov. 25, 2013 Rise Set
Actual Time 6:55 AM CST 4:43 PM CST
Civil Twilight 6:26 AM CST 5:12 PM CST
Nautical Twilight 5:54 AM CST 5:45 PM CST
Astronomical Twilight 5:22 AM CST 6:16 PM CST
Moon No Moon Rise 12:15 PM CST (11/25)
Length of Visible Light 10h 45m
Length of Day
9h 47m
Waning Gibbous, 51% of the Moon is Illuminated
Nov 25
Waning Gibbous
Nov 25
Last Quarter
Dec 2
New
Dec 9
First Quarter
Dec 17
Full

Hourly Weather History & Observations

Time (CST) Temp. Windchill Dew Point Humidity Pressure Visibility Wind Dir Wind Speed Gust Speed Precip Events Conditions
12:54 AM 27.0 °F 23.0 °F 10.9 °F 51% 30.44 in 10.0 mi SE 3.5 mph - N/A   Clear
1:54 AM 27.0 °F 23.0 °F 10.9 °F 51% 30.42 in 10.0 mi ESE 3.5 mph - N/A   Partly Cloudy
2:54 AM 28.0 °F 21.7 °F 10.9 °F 49% 30.41 in 10.0 mi South 5.8 mph - N/A   Overcast
3:54 AM 28.0 °F 22.8 °F 12.0 °F 51% 30.38 in 10.0 mi South 4.6 mph - N/A   Overcast
4:54 AM 28.0 °F 21.7 °F 12.9 °F 53% 30.37 in 10.0 mi South 5.8 mph - N/A   Overcast
5:54 AM 28.9 °F 23.9 °F 12.9 °F 51% 30.36 in 10.0 mi SSE 4.6 mph - N/A   Overcast
6:54 AM 28.9 °F 25.2 °F 14.0 °F 54% 30.35 in 10.0 mi South 3.5 mph - 0.00 in   Overcast
7:54 AM 30.0 °F 25.2 °F 14.0 °F 51% 30.34 in 10.0 mi South 4.6 mph - 0.00 in   Overcast
8:54 AM 30.9 °F 25.2 °F 14.0 °F 50% 30.33 in 10.0 mi South 5.8 mph - N/A   Overcast
9:54 AM 33.1 °F 26.1 °F 14.0 °F 46% 30.34 in 10.0 mi SSW 8.1 mph - N/A   Overcast
10:54 AM 34.0 °F 27.2 °F 12.9 °F 42% 30.31 in 10.0 mi SSW 8.1 mph - N/A   Overcast
11:54 AM 35.1 °F 27.9 °F 14.0 °F 42% 30.28 in 10.0 mi SW 9.2 mph - N/A   Overcast
12:54 PM 35.1 °F 27.9 °F 14.0 °F 42% 30.27 in 10.0 mi WSW 9.2 mph - N/A   Overcast
1:54 PM 36.0 °F 28.5 °F 15.1 °F 43% 30.25 in 10.0 mi WSW 10.4 mph - N/A   Overcast
2:54 PM 36.0 °F 31.1 °F 14.0 °F 41% 30.24 in 10.0 mi WSW 5.8 mph - N/A   Overcast
3:54 PM 36.0 °F - 14.0 °F 41% 30.23 in 10.0 mi Calm Calm - N/A   Overcast
4:54 PM 36.0 °F 31.1 °F 15.1 °F 43% 30.24 in 10.0 mi South 5.8 mph - N/A   Overcast
5:54 PM 35.1 °F 32.2 °F 16.0 °F 46% 30.24 in 10.0 mi SSW 3.5 mph - N/A   Overcast
6:54 PM 35.1 °F 32.2 °F 17.1 °F 48% 30.25 in 10.0 mi SSW 3.5 mph - N/A   Overcast
7:54 PM 35.1 °F - 19.0 °F 52% 30.23 in 10.0 mi Calm Calm - N/A   Overcast
8:54 PM 35.1 °F - 21.9 °F 59% 30.20 in 10.0 mi Calm Calm - N/A   Overcast
9:54 PM 34.0 °F 29.8 °F 23.0 °F 64% 30.21 in 10.0 mi WSW 4.6 mph - N/A   Overcast
10:54 PM 35.1 °F 32.2 °F 23.0 °F 61% 30.23 in 10.0 mi SW 3.5 mph - N/A   Overcast
11:54 PM 34.0 °F - 23.0 °F 64% 30.20 in 10.0 mi Calm Calm - N/A   Overcast